Location: Ettlingenweier
(48.9271°N, 8.3883°E)
Time: 12:37:33
(UTC+00:00)

Daily predictions for brighter satellites

Satellite Brightness Start Highest point End
(mag) Time Altitude Azimuth Time Altitude Azimuth Time Altitude Azimuth
Cosmos 1980 Rocket 2.3 19:38:14 10° NNW 19:43:54 81° WSW 19:49:32 10° SSE
Cosmos 2369 4.2 19:38:36 10° NW 19:44:11 61° WSW 19:49:43 10° S
Cosmos 2058 3.3 19:41:31 10° SSW 19:45:41 71° W 19:49:54 10° N
MetOp-B 4.5 19:41:30 10° SE 19:46:42 53° ENE 19:51:55 10° N
USA 234 4.3 19:40:53 10° ENE 19:47:01 44° N 19:53:10 10° WNW
Cosmos 2221 2.9 19:44:47 10° NNW 19:49:04 67° W 19:53:21 10° S
ERBS 4.5 19:47:54 10° W 19:50:10 18° SW 19:52:25 10° S
RESURS DK-1 2.3 19:47:01 10° SSW 19:51:10 79° ESE 19:55:21 10° NNE
USA 245 4.3 19:48:45 10° SE 19:53:26 40° ENE 19:57:18 10° N
Cosmos 2322 Rocket 3.2 19:49:20 10° NNW 19:54:30 35° NE 19:59:36 10° ESE
COSMOS 2406 3.9 19:48:58 10° SW 19:54:35 61° WNW 20:00:16 10° NNE
BREEZE-M DEB (TANK) 3.7 19:51:19 10° SSW 19:54:47 43° SE 20:05:23 10° ENE
Cosmos 304 Rocket 4.1 19:54:27 10° NNW 19:59:11 55° ENE 20:03:52 10° SE
BREEZE-M DEB (TANK) 3.5 19:57:05 10° W 20:00:06 63° SSW 20:08:41 10° ESE
Cosmos 1933 3.8 19:56:40 10° N 20:00:35 44° ENE 20:04:26 10° SSE
Cosmos 1538 Rocket 4.0 19:56:54 10° S 20:02:01 60° ESE 20:07:07 10° NNE
Resurs 01 Rocket 1.8 19:59:56 10° S 20:04:21 79° WSW 20:08:52 10° NNW
ERS-2 2.2 20:01:27 10° NNE 20:05:07 84° WNW 20:08:46 10° SSW
Cosmos 2151 3.2 20:02:21 10° S 20:06:27 51° E 20:10:37 10° NNE
Cosmos 2098 Rocket 2.3 20:04:36 10° S 20:07:42 86° E 20:11:27 10° N
Cosmos 44 Rocket 4.2 20:02:52 10° SW 20:08:01 58° NW 20:13:13 10° NNE
Gbstr 26 Del rocket 2.6 20:05:25 10° WNW 20:09:09 88° SSW 20:12:56 11° ESE
Meteor 2-3 Rocket 4.0 20:06:15 10° SSE 20:11:40 49° E 20:17:10 10° NNE
CARTOSAT-1 4.0 20:09:30 11° SE 20:13:26 46° ENE 20:17:34 10° N
Cosmos 2219 Rocket 4.2 20:11:48 10° N 20:15:32 18° NE 20:19:13 10° ENE
Ariane Rocket 4.1 20:14:05 10° S 20:18:53 43° W 20:23:44 10° NNW
SL-16 R/B 2.4 20:17:35 10° NNW 20:23:15 65° ENE 20:28:03 14° SE
Cosmos 1782 3.1 20:23:07 10° N 20:27:03 50° ENE 20:30:03 16° SSE
Cosmos 371 Rocket 4.0 20:23:09 10° NNW 20:27:48 50° WSW 20:32:26 10° S
ARIANE 5 R/B 2.9 20:26:51 15° SSE 20:30:31 58° ENE 20:34:54 10° N
Cosmos 1271 Rocket 2.7 20:29:38 10° N 20:33:39 82° ENE 20:36:56 15° SSE
SPOT 1/Viking Rocket 3.8 20:31:33 10° S 20:36:44 71° WSW 20:41:58 10° NNW
USA 276 2.3 20:33:41 10° W 20:36:47 55° SSW 20:38:32 22° SE
BREEZE-M DEB (TANK) 3.0 20:34:54 10° W 20:37:55 47° SSW 20:43:14 16° SE
Cosmos 2195 Rocket 4.4 20:32:41 10° S 20:38:48 78° E 20:44:56 10° NNE
Cosmos 1151 Rocket 3.2 20:36:21 10° N 20:40:40 57° ENE 20:43:40 19° SSE
Cosmos 1766 Rocket 4.0 20:37:41 16° SSE 20:40:53 43° E 20:45:03 10° NNE
ATLAS 5 CENTAUR R/B 3.9 20:37:54 10° NNW 20:42:01 24° NNE 20:46:43 10° ENE
Cosmos 1328 Rocket 4.0 20:40:33 10° N 20:44:53 49° ENE 20:47:39 21° SE
ATLAS 2AS CENTAUR R/B 3.9 20:38:12 10° WSW 20:45:55 53° NW 20:53:23 10° NE
Cosmos 923 Rocket 4.0 20:43:06 10° S 20:48:23 67° ESE 20:53:42 10° NNE
ATLAS 3B R/B 3.7 20:43:43 10° NW 20:50:20 43° WSW 20:56:42 12° S
Terra 2.1 20:47:56 20° SE 20:51:06 55° ENE 20:55:46 10° N
SPOT 5 2.6 20:50:48 20° SSE 20:53:45 78° ENE 20:58:11 10° NNW
USA 267 4.1 20:48:30 10° ENE 20:53:50 26° SE 20:59:01 10° S
Cosmos 1092 Rocket 4.2 20:50:40 10° SSW 20:56:55 77° W 21:03:17 10° N
Cosmos 2082 Rocket 3.7 20:51:49 10° WSW 20:57:05 39° NW 21:02:25 10° NNE
Cosmos 2056 Rocket 3.7 20:53:28 10° NNW 20:58:49 63° ENE 21:02:09 23° SE
NOSS 2-1 (C) 3.7 21:00:51 28° ESE 21:00:51 28° ESE 21:03:38 10° ENE
BREEZE-M DEB (TANK) 1.3 21:00:33 10° W 21:02:45 87° NNW 21:03:13 45° E
ERS-1 Rocket 3.0 21:00:35 19° SSE 21:04:12 85° WSW 21:09:16 10° NNW
Cosmos 2360 Rocket 2.3 21:01:00 10° NNW 21:06:38 65° ENE 21:10:08 23° SE
SL-27 R/B 3.3 21:06:23 29° ESE 21:06:55 31° ESE 21:10:09 10° NE
NOSS 2-1 (D) 3.4 21:08:18 34° SE 21:08:23 34° ESE 21:11:26 10° ENE
Cosmos 2026 Rocket 4.2 21:03:33 10° SSW 21:09:54 76° W 21:16:12 10° N
GP-B 3.7 21:07:59 10° N 21:12:21 56° W 21:16:14 13° SSW
ISS -1.8 21:13:06 10° W 21:15:25 17° SW 21:15:56 17° SSW
Cosmos 2333 Rocket 3.0 21:11:44 10° NNW 21:17:08 43° NE 21:20:38 20° ESE
Spot 2 Rocket 4.3 21:14:48 14° S 21:18:55 46° W 21:23:51 10° NNW
Meteor 1-10 Rocket 4.2 21:14:14 10° N 21:19:47 67° ENE 21:22:51 27° SSE
Cosmos 1371 Rocket 4.1 21:14:55 10° NNW 21:20:20 83° WSW 21:23:22 27° SSE
Cosmos 1812 2.7 21:17:27 10° NNW 21:21:21 80° W 21:23:04 32° S
Cosmos 2112 Rocket 3.9 21:17:48 11° SSW 21:23:01 84° ESE 21:28:19 10° NNE
Cosmos 1680 Rocket 3.5 21:18:14 10° SSW 21:23:31 85° WNW 21:28:49 10° NNE
Cosmos 220 Rocket 4.2 21:19:26 10° NNW 21:23:44 64° WSW 21:25:50 29° S
Cosmos 1500 Rocket 4.4 21:22:35 29° ESE 21:23:48 34° E 21:27:50 10° NNE
Cosmos 2322 4.3 21:21:57 10° NNW 21:27:30 48° NE 21:30:49 23° ESE
Okean 3 Rocket 3.9 21:24:58 17° SSW 21:28:25 67° W 21:32:57 10° N
USA 234 3.7 21:23:03 10° E 21:29:28 60° NNE 21:35:54 10° NW
Cosmos 292 Rocket 3.8 21:26:48 10° NNW 21:31:35 71° ENE 21:33:40 33° SE
Cosmos 2237 Rocket 4.1 21:33:07 10° N 21:37:25 21° NE 21:41:42 10° E
Cosmos 2322 Rocket 2.8 21:33:19 10° NW 21:38:43 48° WSW 21:41:46 24° S
Meteor 2-16 Rocket 4.4 21:35:25 26° S 21:38:57 70° E 21:45:01 10° NNE
Cosmos 1408 Rocket 3.5 21:40:12 31° S 21:42:15 88° W 21:46:37 10° N
Cosmos 1743 Rocket 3.8 21:42:22 39° SE 21:43:38 53° E 21:47:59 10° NNE
Cosmos 2285 Rocket 4.4 21:38:09 10° NNW 21:44:20 54° ENE 21:47:42 27° SE
Cosmos 2315 Rocket 4.2 21:42:57 10° N 21:49:13 62° ENE 21:52:17 31° SSE
Sich 1 4.0 21:51:50 29° ESE 21:52:21 30° E 21:56:10 10° NNE
Cosmos 2084 3.3 21:48:52 14° SW 21:52:23 85° NW 21:56:35 10° NE
Gbstr 26 Del rocket 4.3 21:52:30 10° W 21:55:26 23° SW 21:55:26 23° SW
Cosmos 2266 Rocket 3.9 21:53:29 29° S 21:56:51 82° E 22:03:07 10° N
Cosmos 1862 4.1 21:57:03 24° SW 21:59:07 47° WNW 22:02:59 10° N
Cosmos 2219 Rocket 2.3 21:54:57 10° NNW 22:00:33 69° ENE 22:02:58 35° SE
Cosmos 2228 Rocket 3.0 22:00:32 10° N 22:04:58 75° ENE 22:06:05 49° SSE
Cosmos 1515 Rocket 4.3 22:00:47 10° NNW 22:05:02 46° W 22:06:43 31° SW
H-2A R/B 3.8 22:01:14 10° N 22:05:24 64° WNW 22:07:14 31° SW
NOSS 2-1 (E) 3.1 22:05:22 38° WSW 22:06:28 69° NW 22:09:58 10° NE
SL-16 R/B 3.9 22:02:30 10° NW 22:06:52 23° WSW 22:09:55 15° SW
NOSS 3-1 (C) 4.0 22:02:23 10° NW 22:09:49 81° SW 22:14:30 30° SSE
Cosmos 2333 4.2 22:04:31 10° NNW 22:10:07 75° WSW 22:12:13 40° SSE
COSMOS 2455 2.9 22:09:09 35° S 22:11:29 57° ESE 22:17:22 10° NE
Cosmos 1420 Rocket 4.5 22:06:35 10° NNW 22:11:45 52° WSW 22:13:43 34° SSW
COSMOS 2428 2.8 22:09:34 10° NNW 22:15:19 74° ENE 22:17:35 38° SE
Cosmos 1655 Rocket 4.3 22:12:44 23° SSW 22:16:48 68° WNW 22:23:13 10° N
Cosmos 1602 4.4 22:17:48 39° E 22:17:48 39° E 22:21:21 10° NNE
Cosmos 1515 3.9 22:16:51 10° N 22:20:34 53° ENE 22:20:48 52° E
Spot 4 3.8 22:21:45 49° SSE 22:23:05 85° ENE 22:27:57 10° NNW
USA 229 DEB 3.9 22:16:45 10° NW 22:24:03 86° NE 22:28:16 30° SE
USA 229 3.9 22:16:51 10° NW 22:24:10 85° NE 22:28:23 30° SE
ATLAS 5 CENTAUR R/B 2.4 22:22:05 10° NW 22:27:29 70° NE 22:30:39 30° ESE
Terra 3.8 22:26:49 15° SW 22:29:11 21° W 22:32:46 10° NW
Cosmos 1452 Rocket 3.6 22:26:07 10° NNW 22:31:21 67° WSW 22:32:49 45° S
COSMOS 2487 2.4 22:31:49 73° NNE 22:31:49 73° NNE 22:34:56 10° NNE
Cosmos 1707 Rocket 3.6 22:27:15 10° N 22:31:36 64° ENE 22:32:18 55° SE
ALOS 2 2.7 22:33:57 53° SE 22:34:46 65° ENE 22:39:09 10° N
USA 267 3.1 22:30:57 10° ENE 22:37:31 79° SE 22:44:05 10° SW
Meteor 1-27 Rocket 4.4 22:36:40 10° NNW 22:42:01 45° W 22:44:14 31° SW
Cosmos 1666 4.3 22:44:25 23° E 22:44:25 23° E 22:47:15 10° NE
NOSS 3-1 (A) 4.0 22:37:05 10° NW 22:44:30 80° SW 22:48:48 33° SSE
Cosmos 2360 Rocket 3.7 22:45:49 10° NW 22:50:08 23° WSW 22:51:53 20° SW
Cosmos 1805 Rocket 4.0 22:49:13 43° SW 22:50:19 57° WNW 22:54:43 10° N
Nadezhda 2 Rocket 4.5 22:49:09 41° S 22:51:36 87° E 22:58:04 10° N
Meteor 1-20 Rocket 4.2 22:54:51 41° SSW 22:56:51 76° WNW 23:02:34 10° N
Cosmos 1110 Rocket 4.0 22:52:05 10° NNW 22:57:25 76° WSW 22:58:40 53° S
Cosmos 1980 3.9 22:53:31 10° NNW 22:59:11 66° ENE 23:01:19 38° SE
Cosmos 2333 Rocket 3.0 22:56:12 10° NW 23:01:21 37° WSW 23:02:38 33° SW
Cosmos 1331 Rocket 3.9 22:57:36 10° NNW 23:02:51 75° WSW 23:03:58 55° S
Cosmos 1244 Rocket 4.4 23:03:47 41° SSW 23:06:05 81° W 23:12:20 10° N
Nimbus 7 Rocket 4.4 23:06:13 10° NNE 23:12:15 70° ESE 23:14:02 46° S
USA 234 3.2 23:10:02 39° SSE 23:12:29 64° SW 23:19:00 10° WNW
Cosmos 1340 Rocket 4.0 23:13:35 31° E 23:13:35 31° E 23:16:51 10° NNE
NOSS 0 Rocket 3.9 23:07:51 10° NNW 23:14:06 74° WSW 23:16:01 46° S
Cosmos 2297 Rocket 2.6 23:17:11 41° SE 23:18:05 44° ESE 23:23:27 10° NE
Okean 1-7 3.9 23:14:14 10° N 23:18:14 38° ENE 23:18:54 36° E
Lacrosse 5 2.6 23:21:59 36° ESE 23:21:59 36° ESE 23:26:01 10° ENE
Cosmos 2237 Rocket 2.1 23:16:35 10° NNW 23:22:19 88° ENE 23:24:02 47° SSE
Cosmos 2084 Rocket 3.3 23:19:41 10° NW 23:23:54 88° SW 23:24:07 80° SSE
Cosmos 2242 Rocket 4.2 23:20:07 10° N 23:24:23 45° ENE 23:25:08 41° ESE
NOSS 2-2 (E) 4.4 23:19:52 10° NW 23:25:10 89° ENE 23:28:32 33° SE
Meteor 1-18 Rocket 4.5 23:19:34 10° NNW 23:25:22 61° W 23:26:56 45° SSW
Cosmos 1500 3.4 23:26:57 59° W 23:26:59 59° WNW 23:30:49 10° N
Cosmos 1470 Rocket 3.3 23:29:03 76° SSE 23:29:21 82° E 23:33:41 10° NNE
Cosmos 2227 Rocket 2.7 23:28:53 39° SE 23:29:47 41° ESE 23:35:04 10° NE
Sich 1 4.4 23:28:46 26° WSW 23:29:59 30° WNW 23:33:50 10° N
Okean 1 4.4 23:28:06 10° NNW 23:31:44 34° W 23:31:46 34° W
Cosmos 1633 Rocket 3.4 23:33:06 49° WSW 23:33:43 53° WNW 23:38:01 10° N
Cosmos 1933 Rocket 3.6 23:35:34 60° SE 23:35:58 64° E 23:40:24 10° NNE
Cosmos 1666 Rocket 4.4 23:37:07 37° WSW 23:37:59 41° WNW 23:42:13 10° N
Meteor 1-11 Rocket 4.2 23:41:19 38° SE 23:42:44 46° E 23:48:01 10° NNE
Cosmos 2219 Rocket 3.7 23:39:51 10° NW 23:43:57 21° W 23:44:40 21° WSW
Cosmos 2263 Rocket 4.4 23:46:39 10° ESE 23:48:25 11° E 23:50:11 10° ENE
NOSS 2-2 (C) 4.3 23:44:08 10° NW 23:49:23 79° SW 23:52:23 35° SSE
SL-16 R/B 2.7 23:44:02 10° NNW 23:49:38 57° ENE 23:52:42 26° SE
Cosmos 1992 Rocket 4.2 23:45:02 10° NNW 23:50:16 66° ENE 23:52:06 39° SE
Cosmos 1269 Rocket 3.9 23:50:05 54° SSW 23:51:19 89° ESE 23:56:39 10° NNE
PSLV R/B 3.7 23:46:35 10° NNE 23:51:24 83° ESE 23:52:12 62° S
Resurs 1-4 Rocket 4.0 23:49:33 10° NE 23:53:14 19° E 23:55:13 15° ESE
